KO4ZGL-13 Weather Reports


time (UTC)temp
C
wind
direction
speed
KPH
gust
KPH
rain 1hr
cm
rain 24hr
cm
rain mn
cm
humidity
%
barometer
mb
20260906105647 21 315 0.0 0.0 0.00 0.00 0.00 99 1011.7
20260906105144 21 315 0.0 0.0 0.00 0.00 0.00 99 1011.4
20260906104643 21 314 0.0 0.0 0.00 0.00 0.00 99 1011.5
20260906104143 21 315 0.0 0.0 0.00 0.00 0.00 99 1011.4
20260906103641 21 315 0.0 0.0 0.00 0.00 0.00 99 1011.4
20260906103136 21 316 0.0 0.0 0.00 0.00 0.00 99 1011.4
20260906102631 21 317 0.0 0.0 0.00 0.00 0.00 99 1011.3
20260906102125 21 316 0.0 0.0 0.00 0.00 0.00 99 1011.4
20260906101620 21 317 0.0 0.0 0.00 0.00 0.00 99 1011.0
20260906101114 21 316 0.0 0.0 0.00 0.00 0.00 99 1011.3
20260906100610 21 315 0.0 0.0 0.00 0.00 0.00 99 1010.8
20260906100110 21 316 0.0 0.0 0.00 0.00 0.00 99 1010.9
20260906095610 21 314 0.0 0.0 0.00 0.00 0.00 99 1011.0
20260906095105 21 315 0.0 0.0 0.00 0.00 0.00 99 1010.8
20260906094604 21 315 0.0 0.0 0.00 0.00 0.00 99 1010.9
20260906094101 21 314 0.0 0.0 0.00 0.00 0.00 99 1010.8
20260906093556 21 311 0.0 0.0 0.00 0.00 0.00 99 1010.8
20260906093051 21 315 0.0 0.0 0.00 0.00 0.00 99 1010.5
20260906092546 21 314 0.0 0.0 0.00 0.00 0.00 99 1010.6
20260906092041 21 310 0.0 0.0 0.00 0.00 0.00 99 1010.5
20260906091537 21 316 0.0 0.0 0.00 0.00 0.00 99 1010.5
20260906091034 21 313 0.0 0.0 0.00 0.00 0.00 99 1010.6
20260906090533 21 312 0.0 0.0 0.00 0.00 0.00 99 1010.5
20260906090028 21 316 0.0 0.0 0.00 0.00 0.00 99 1010.5
20260906085527 21 316 0.0 0.0 0.00 0.00 0.00 99 1010.6
20260906085027 21 317 0.0 0.0 0.00 0.00 0.00 99 1010.6
20260906084522 21 318 0.0 0.0 0.00 0.00 0.00 99 1010.8
20260906084020 21 315 0.0 0.0 0.00 0.00 0.00 99 1010.5
20260906083517 21 318 0.0 0.0 0.00 0.00 0.00 99 1010.6
20260906083016 21 315 0.0 0.0 0.00 0.00 0.00 99 1010.7
20260906082511 21 317 0.0 0.0 0.00 0.00 0.00 99 1010.6
20260906082007 21 318 0.0 0.0 0.00 0.00 0.00 99 1010.7
20260906081503 21 316 0.0 0.0 0.00 0.00 0.00 99 1010.8
20260906080958 21 318 0.0 0.0 0.00 0.00 0.00 99 1010.9
20260906080455 21 318 0.0 0.0 0.00 0.00 0.00 99 1010.5
20260906075955 21 314 0.0 0.0 0.00 0.00 0.00 99 1010.6
20260906075449 21 318 0.0 0.0 0.00 0.00 0.00 99 1010.7
20260906074945 21 313 0.0 0.0 0.00 0.00 0.00 99 1011.0
20260906074439 21 316 0.0 0.0 0.00 0.00 0.00 99 1011.2
20260906073937 21 314 0.0 0.0 0.00 0.00 0.00 99 1011.1
20260906073433 21 314 0.0 0.0 0.00 0.00 0.00 99 1011.1
20260906072929 21 316 0.0 0.0 0.00 0.00 0.00 99 1011.1
20260906072424 21 316 0.0 0.0 0.00 0.00 0.00 99 1011.3
20260906071920 21 315 0.0 0.0 0.00 0.00 0.00 99 1011.3
20260906071416 21 315 0.0 0.0 0.00 0.00 0.00 99 1011.3
20260906070912 21 315 0.0 0.0 0.00 0.00 0.00 99 1011.4
20260906070408 21 315 0.0 0.0 0.00 0.00 0.00 99 1011.5
20260906065903 21 315 0.0 0.0 0.00 0.00 0.00 99 1011.5
20260906065356 21 319 0.0 0.0 0.00 0.00 0.00 99 1011.3
20260906064853 21 320 0.0 0.0 0.00 0.00 0.00 99 1011.3
20260906064348 21 317 0.0 0.0 0.00 0.00 0.00 99 1011.3
20260906063843 21 330 0.0 0.0 0.00 0.00 0.00 99 1011.6
20260906063338 21 316 0.0 0.0 0.00 0.00 0.00 99 1011.8
20260906062833 22 318 0.0 0.0 0.00 0.00 0.00 99 1011.5
20260906062332 21 320 0.0 0.0 0.00 0.00 0.00 99 1011.5
20260906061828 21 316 0.0 0.0 0.00 0.00 0.00 99 1011.5
20260906061324 21 317 0.0 0.0 0.00 0.00 0.00 99 1011.5
20260906060819 22 319 0.0 0.0 0.00 0.00 0.00 99 1011.5
20260906060317 22 318 0.0 0.0 0.00 0.00 0.00 99 1011.2
20260906055812 22 319 0.0 0.0 0.00 0.00 0.00 99 1011.2
20260906055308 22 318 0.0 0.0 0.00 0.00 0.00 99 1011.5
20260906054803 21 316 0.0 0.0 0.00 0.00 0.00 99 1011.3
20260906054258 22 315 0.0 0.0 0.00 0.00 0.00 99 1011.1
20260906053754 22 317 0.0 0.0 0.00 0.00 0.00 99 1011.5
20260906053250 22 322 0.0 0.0 0.00 0.00 0.00 99 1011.5
20260906052745 22 322 0.0 0.0 0.00 0.00 0.00 99 1011.3
20260906052241 22 314 0.0 1.6 0.00 0.00 0.00 99 1011.4
20260906051737 22 317 0.0 0.0 0.00 0.00 0.00 99 1011.6
20260906051237 22 317 0.0 0.0 0.00 0.00 0.00 99 1011.4
20260906050727 22 317 0.0 0.0 0.00 0.00 0.00 99 1011.8
20260906050222 22 316 0.0 0.0 0.00 0.00 0.00 99 1011.8
20260906045721 22 318 0.0 0.0 0.00 0.00 0.00 99 1011.7
20260906045216 22 321 0.0 0.0 0.00 0.00 0.00 99 1012.0
20260906044711 22 315 0.0 0.0 0.00 0.00 0.00 99 1011.9
20260906044207 22 317 0.0 0.0 0.00 0.00 0.00 99 1011.9
20260906043703 22 316 0.0 0.0 0.00 0.00 0.00 99 1012.1
20260906043158 22 318 0.0 1.6 0.00 0.00 0.00 99 1012.0
20260906042657 22 320 0.0 0.0 0.00 0.00 0.00 99 1012.2
20260906042151 22 318 0.0 0.0 0.00 0.00 0.00 99 1012.1
20260906041647 22 315 0.0 0.0 0.00 0.00 0.00 99 1012.4
20260906041142 22 317 0.0 0.0 0.00 0.00 0.00 99 1012.2
20260906040637 22 319 0.0 0.0 0.00 0.00 0.00 99 1012.1
20260906040133 22 318 0.0 0.0 0.00 0.00 0.00 99 1012.1
20260906035628 22 317 0.0 0.0 0.00 0.05 0.05 99 1012.3
20260906035123 22 316 0.0 0.0 0.00 0.05 0.05 99 1011.9
20260906034618 22 322 0.0 0.0 0.00 0.05 0.05 99 1012.1
20260906034113 22 321 0.0 0.0 0.00 0.05 0.05 99 1012.0
20260906033608 22 319 0.0 0.0 0.00 0.05 0.05 98 1012.0
20260906033102 22 317 0.0 0.0 0.00 0.05 0.05 98 1012.1
20260906032559 22 318 0.0 0.0 0.00 0.05 0.05 98 1012.4
20260906032054 22 319 0.0 0.0 0.00 0.05 0.05 98 1012.4
20260906031549 22 321 0.0 0.0 0.00 0.05 0.05 98 1012.3
20260906031045 22 315 0.0 0.0 0.00 0.05 0.05 98 1012.5
20260906030544 22 318 0.0 0.0 0.00 0.05 0.05 98 1012.7
20260906030043 22 318 0.0 0.0 0.00 0.05 0.05 98 1012.6
20260906025538 22 324 0.0 0.0 0.00 0.05 0.05 98 1012.7
20260906025036 22 316 0.0 0.0 0.00 0.05 0.05 98 1012.4
20260906024531 22 322 0.0 1.6 0.00 0.05 0.05 98 1012.5
20260906024026 22 318 0.0 0.0 0.00 0.05 0.05 98 1012.2
20260906023522 22 324 0.0 0.0 0.00 0.05 0.05 98 1012.1
20260906023017 22 325 0.0 0.0 0.00 0.05 0.05 98 1011.7
20260906022512 22 316 0.0 0.0 0.00 0.05 0.05 98 1011.6
20260906022007 22 310 1.6 1.6 0.00 0.05 0.05 98 1011.5
20260906021503 22 316 0.0 0.0 0.00 0.05 0.05 98 1011.8
20260906020957 23 315 0.0 0.0 0.00 0.05 0.05 98 1011.5
20260906020451 22 319 0.0 0.0 0.00 0.05 0.05 97 1011.4
20260906015950 23 316 0.0 0.0 0.00 0.05 0.05 97 1011.1
20260906015449 22 319 0.0 0.0 0.00 0.05 0.05 97 1011.1
20260906014950 22 317 0.0 0.0 0.00 0.05 0.05 97 1011.3
20260906014450 22 317 0.0 0.0 0.00 0.05 0.05 97 1011.1
20260906013945 23 312 0.0 1.6 0.00 0.05 0.05 96 1011.1
20260906013440 23 337 1.6 1.6 0.00 0.05 0.05 96 1010.7
20260906012936 23 22 4.8 4.8 0.00 0.05 0.05 96 1009.5
20260906012431 23 312 1.6 1.6 0.13 0.05 0.05 95 1010.0
20260906011930 23 328 0.0 1.6 0.13 0.05 0.05 94 1010.5
20260906011426 23 330 1.6 1.6 0.18 0.03 0.03 93 1010.0
20260906010921 24 299 1.6 1.6 0.18 0.03 0.03 91 1009.2
20260906010416 25 315 0.0 0.0 0.00 0.00 0.00 88 1009.9
20260906005912 25 348 1.6 1.6 0.00 0.00 0.00 85 1010.1
20260906005412 26 342 3.2 4.8 0.00 0.00 0.00 83 1010.5
20260906004910 26 319 0.0 0.0 0.00 0.00 0.00 80 1010.8
20260906004405 26 316 0.0 0.0 0.00 0.00 0.00 78 1010.7
20260906003900 26 308 0.0 0.0 0.00 0.00 0.00 77 1011.4
20260906003355 26 311 1.6 1.6 0.00 0.00 0.00 77 1011.3
20260906002851 26 317 0.0 0.0 0.00 0.00 0.00 75 1011.5
20260906002350 27 317 0.0 0.0 0.00 0.00 0.00 75 1011.5
20260906001846 27 315 0.0 0.0 0.00 0.00 0.00 75 1011.5
20260906001341 27 359 1.6 3.2 0.00 0.00 0.00 77 1011.5
20260906000836 27 337 1.6 1.6 0.00 0.00 0.00 77 1011.6
20260906000333 27 328 0.0 1.6 0.00 0.00 0.00 78 1011.7
20260905235826 27 319 0.0 0.0 0.00 0.00 0.00 79 1011.8
20260905235326 27 323 1.6 1.6 0.00 0.00 0.00 78 1011.6
20260905234821 27 317 1.6 1.6 0.00 0.00 0.00 77 1011.7
20260905234316 28 322 0.0 1.6 0.00 0.00 0.00 78 1012.2
20260905233811 28 297 0.0 1.6 0.00 0.00 0.00 79 1012.1
20260905233306 28 316 1.6 1.6 0.00 0.00 0.00 79 1011.6
20260905232805 28 306 1.6 3.2 0.00 0.00 0.00 80 1011.8
20260905232305 28 320 3.2 3.2 0.00 0.00 0.00 82 1011.9
20260905231757 30 320 0.0 0.0 0.00 0.00 0.00 87 1011.9
20260905231251 30 295 1.6 1.6 0.00 0.00 0.00 86 1011.7
20260905230743 30 310 0.0 1.6 0.00 0.00 0.00 84 1011.4
20260905230240 30 312 0.0 0.0 0.00 0.00 0.00 83 1011.4
20260905225740 30 322 0.0 0.0 0.00 0.00 0.00 82 1011.2
20260905225235 31 316 0.0 0.0 0.00 0.00 0.00 82 1011.1
20260905224734 31 316 0.0 0.0 0.00 0.00 0.00 80 1011.0
20260905224230 31 316 0.0 0.0 0.00 0.00 0.00 79 1010.8
20260905223726 31 321 0.0 0.0 0.00 0.00 0.00 79 1010.8
20260905223223 31 316 0.0 0.0 0.00 0.00 0.00 77 1011.0
20260905222718 32 318 0.0 0.0 0.00 0.00 0.00 78 1010.9
20260905222217 32 320 0.0 0.0 0.00 0.00 0.00 77 1010.9
20260905221713 32 321 0.0 0.0 0.00 0.00 0.00 75 1010.7
20260905221210 33 328 0.0 0.0 0.00 0.00 0.00 75 1010.6
20260905220705 33 326 0.0 0.0 0.00 0.00 0.00 72 1010.6
20260905220201 33 324 0.0 1.6 0.00 0.00 0.00 72 1010.5
20260905215700 34 322 0.0 0.0 0.00 0.00 0.00 70 1010.5
20260905215156 35 325 0.0 0.0 0.00 0.00 0.00 68 1010.3
20260905214652 36 320 0.0 0.0 0.00 0.00 0.00 66 1010.3
20260905214147 36 321 0.0 0.0 0.00 0.00 0.00 62 1010.3
20260905213642 36 317 0.0 0.0 0.00 0.00 0.00 65 1010.3
20260905213137 36 318 0.0 0.0 0.00 0.00 0.00 62 1010.2
20260905212632 36 326 0.0 0.0 0.00 0.00 0.00 63 1010.6
20260905212127 35 319 0.0 0.0 0.00 0.00 0.00 64 1010.3
20260905211621 36 317 0.0 0.0 0.00 0.00 0.00 67 1010.3
20260905211117 36 321 0.0 0.0 0.00 0.00 0.00 60 1010.5
20260905210613 36 342 0.0 1.6 0.00 0.00 0.00 62 1010.2
20260905210108 36 315 0.0 0.0 0.00 0.00 0.00 58 1010.3
20260905205606 36 320 0.0 0.0 0.00 0.00 0.00 61 1010.5
20260905205101 36 325 0.0 1.6 0.00 0.00 0.00 61 1010.4
20260905204555 36 324 0.0 0.0 0.00 0.00 0.00 67 1010.3
20260905204051 36 325 0.0 0.0 0.00 0.00 0.00 64 1010.1
20260905203550 36 332 0.0 1.6 0.00 0.00 0.00 62 1010.1
20260905203046 36 319 0.0 0.0 0.00 0.00 0.00 62 1010.2
20260905202541 36 319 0.0 0.0 0.00 0.00 0.00 63 1010.1
20260905202037 36 321 0.0 0.0 0.00 0.00 0.00 62 1010.2
20260905201532 36 345 1.6 3.2 0.00 0.00 0.00 63 1010.4
20260905201031 36 334 0.0 0.0 0.00 0.00 0.00 64 1010.4
20260905200527 35 320 0.0 0.0 0.00 0.00 0.00 66 1010.4
20260905200026 35 323 0.0 0.0 0.00 0.00 0.00 67 1010.1
20260905195521 36 328 1.6 1.6 0.00 0.00 0.00 64 1010.5
20260905195016 36 334 1.6 1.6 0.00 0.00 0.00 60 1010.6
20260905194515 36 316 0.0 0.0 0.00 0.00 0.00 60 1010.7
20260905194009 36 342 4.8 4.8 0.00 0.00 0.00 61 1010.7
20260905193504 37 316 0.0 0.0 0.00 0.00 0.00 61 1010.6
20260905193000 36 320 0.0 0.0 0.00 0.00 0.00 64 1010.7
20260905192455 36 318 0.0 0.0 0.00 0.00 0.00 64 1010.9
20260905191951 36 318 3.2 3.2 0.00 0.00 0.00 63 1011.1
20260905191450 35 307 0.0 1.6 0.00 0.00 0.00 62 1011.1
20260905190949 36 325 3.2 3.2 0.00 0.00 0.00 62 1011.1
20260905190447 36 329 0.0 1.6 0.00 0.00 0.00 63 1011.2
20260905185946 36 338 4.8 4.8 0.00 0.00 0.00 62 1011.2
20260905185441 35 323 0.0 0.0 0.00 0.00 0.00 64 1011.4
20260905184939 36 326 0.0 1.6 0.00 0.00 0.00 64 1011.6
20260905184434 35 316 0.0 0.0 0.00 0.00 0.00 67 1011.7
20260905183933 35 289 3.2 3.2 0.00 0.00 0.00 65 1011.6
20260905183428 36 355 1.6 1.6 0.00 0.00 0.00 63 1011.8
20260905182923 36 320 0.0 0.0 0.00 0.00 0.00 64 1011.9
20260905182422 36 332 0.0 1.6 0.00 0.00 0.00 64 1012.0
20260905181918 36 356 3.2 3.2 0.00 0.00 0.00 66 1012.0
20260905181418 36 316 3.2 3.2 0.00 0.00 0.00 66 1012.2
20260905180917 36 23 3.2 3.2 0.00 0.00 0.00 65 1012.2
20260905180412 36 315 1.6 1.6 0.00 0.00 0.00 69 1012.1
20260905175907 35 325 0.0 0.0 0.00 0.00 0.00 65 1012.4
20260905175406 35 320 0.0 1.6 0.00 0.00 0.00 67 1012.3
20260905174901 35 321 0.0 1.6 0.00 0.00 0.00 69 1012.5
20260905174358 35 312 3.2 3.2 0.00 0.00 0.00 67 1012.6
20260905173853 35 317 0.0 1.6 0.00 0.00 0.00 69 1012.7
20260905173349 33 324 0.0 1.6 0.00 0.00 0.00 70 1012.8
20260905172844 34 0 1.6 3.2 0.00 0.00 0.00 69 1012.7
20260905172342 35 328 3.2 4.8 0.00 0.00 0.00 69 1012.6
20260905171838 34 308 0.0 0.0 0.00 0.00 0.00 71 1012.5
20260905171335 34 314 0.0 1.6 0.00 0.00 0.00 70 1012.7
20260905170831 35 349 0.0 1.6 0.00 0.00 0.00 70 1012.8
20260905170327 34 310 0.0 0.0 0.00 0.00 0.00 70 1013.1
20260905165825 35 319 1.6 3.2 0.00 0.00 0.00 71 1013.1
20260905165321 33 333 0.0 1.6 0.00 0.00 0.00 73 1013.4
20260905164821 33 306 1.6 1.6 0.00 0.00 0.00 71 1013.2
20260905164316 33 324 1.6 1.6 0.00 0.00 0.00 71 1013.3
20260905163811 33 308 1.6 1.6 0.00 0.00 0.00 73 1013.5
20260905163307 33 312 1.6 1.6 0.00 0.00 0.00 75 1013.8
20260905162803 33 319 1.6 1.6 0.00 0.00 0.00 75 1013.7
20260905162257 33 326 0.0 0.0 0.00 0.00 0.00 74 1013.8
20260905161751 32 118 4.8 4.8 0.00 0.00 0.00 76 1013.7
20260905161250 33 2 3.2 3.2 0.00 0.00 0.00 74 1013.9
20260905160748 33 299 0.0 0.0 0.00 0.00 0.00 76 1014.0
20260905160243 32 318 0.0 0.0 0.00 0.00 0.00 76 1013.9
20260905155738 32 315 0.0 0.0 0.00 0.00 0.00 77 1014.2
20260905155236 32 315 0.0 1.6 0.00 0.00 0.00 76 1014.5
20260905154731 32 317 0.0 1.6 0.00 0.00 0.00 77 1014.4
20260905154227 32 314 1.6 3.2 0.00 0.00 0.00 77 1014.3
20260905153717 31 327 0.0 1.6 0.00 0.00 0.00 80 1014.2
20260905153213 31 314 0.0 0.0 0.00 0.00 0.00 81 1014.7
20260905152707 32 271 6.4 8.0 0.00 0.00 0.00 78 1014.6
20260905152201 31 309 0.0 0.0 0.00 0.00 0.00 81 1014.5
20260905151701 31 261 1.6 3.2 0.00 0.00 0.00 81 1014.6
20260905151157 31 319 0.0 0.0 0.00 0.00 0.00 81 1014.6
20260905150652 31 315 0.0 0.0 0.00 0.00 0.00 83 1014.6
20260905150150 30 333 1.6 3.2 0.00 0.00 0.00 84 1014.6
20260905145649 30 333 0.0 3.2 0.00 0.00 0.00 85 1014.4
20260905145149 30 319 1.6 1.6 0.00 0.00 0.00 86 1014.8
20260905144643 30 284 3.2 3.2 0.00 0.00 0.00 85 1014.8
20260905144143 30 316 1.6 1.6 0.00 0.00 0.00 85 1014.6
20260905143638 30 322 1.6 3.2 0.00 0.00 0.00 85 1014.7
20260905143138 30 316 0.0 1.6 0.00 0.00 0.00 85 1014.7
20260905142636 30 312 1.6 1.6 0.00 0.00 0.00 86 1014.9
20260905142130 30 321 0.0 1.6 0.00 0.00 0.00 87 1014.7
20260905141625 29 308 0.0 1.6 0.00 0.00 0.00 89 1014.8
20260905141122 28 322 0.0 0.0 0.00 0.00 0.00 91 1014.8
20260905140616 28 317 0.0 0.0 0.00 0.00 0.00 94 1014.6
20260905140115 28 319 3.2 3.2 0.00 0.00 0.00 95 1014.5
20260905135611 27 311 0.0 1.6 0.00 0.00 0.00 97 1014.5
20260905135106 27 254 4.8 4.8 0.00 0.00 0.00 97 1014.6
20260905134601 27 308 0.0 0.0 0.00 0.00 0.00 98 1014.8
20260905134059 27 301 1.6 1.6 0.00 0.00 0.00 99 1014.7
20260905133555 26 317 0.0 1.6 0.00 0.00 0.00 99 1014.8
20260905133054 26 323 0.0 0.0 0.00 0.00 0.00 99 1014.7
20260905132548 26 313 0.0 0.0 0.00 0.00 0.00 99 1014.9
20260905132043 26 290 1.6 3.2 0.00 0.00 0.00 99 1014.8
20260905131539 26 317 0.0 0.0 0.00 0.00 0.00 99 1015.0
20260905131034 26 307 0.0 0.0 0.00 0.00 0.00 99 1014.8
20260905130533 25 311 0.0 0.0 0.00 0.00 0.00 99 1014.8
20260905130029 25 342 4.8 4.8 0.00 0.00 0.00 99 1015.0
20260905125528 25 305 0.0 0.0 0.00 0.00 0.00 99 1014.7
20260905125023 25 308 0.0 0.0 0.00 0.00 0.00 99 1014.9
20260905124520 25 319 0.0 0.0 0.00 0.00 0.00 99 1015.0
20260905124015 25 321 0.0 0.0 0.00 0.00 0.00 99 1014.8
20260905123510 25 318 0.0 0.0 0.00 0.00 0.00 99 1014.6
20260905123007 25 316 0.0 0.0 0.00 0.00 0.00 99 1014.9
20260905122502 25 316 0.0 0.0 0.00 0.00 0.00 99 1014.8
20260905121956 24 314 0.0 0.0 0.00 0.00 0.00 99 1014.9
20260905121452 24 316 0.0 0.0 0.00 0.00 0.00 99 1014.9
20260905120950 23 316 0.0 0.0 0.00 0.00 0.00 99 1014.6
20260905120445 23 316 0.0 0.0 0.00 0.00 0.00 99 1014.5
20260905115940 23 315 0.0 0.0 0.00 0.00 0.00 99 1014.7
20260905115439 23 315 0.0 0.0 0.00 0.00 0.00 99 1014.5
20260905114929 23 319 0.0 0.0 0.00 0.00 0.00 99 1014.5
20260905114429 23 319 0.0 0.0 0.00 0.00 0.00 99 1014.5
20260905113927 23 315 0.0 0.0 0.00 0.00 0.00 99 1014.5
20260905113423 23 316 0.0 0.0 0.00 0.00 0.00 99 1014.3
20260905112918 23 317 0.0 0.0 0.00 0.00 0.00 99 1014.4
20260905112414 23 317 0.0 0.0 0.00 0.00 0.00 99 1014.1
20260905111909 23 316 0.0 0.0 0.00 0.00 0.00 99 1014.5
20260905111408 23 316 0.0 0.0 0.00 0.00 0.00 99 1014.3
20260905110902 23 316 0.0 0.0 0.00 0.00 0.00 99 1014.3
20260905110356 23 316 0.0 0.0 0.00 0.00 0.00 99 1014.5
20260905105852 23 316 0.0 0.0 0.00 0.00 0.00 99 1014.3